Buffalo, SD

8:54 AM MDT on September 27, 2016 (GMT -0600)
Buffalo

Weather History for K2WX - February, 2013

Change the Weather History Date:

Wednesday, February 6, 2013

  Actual Average Record
Temperature  
Mean Temperature 38 °F 22 °F  
Max Temperature 49 °F 32 °F 66 °F (2015)
Min Temperature 27 °F 12 °F -17 °F (2014)
Degree Days  
Heating Degree Days 27 43  
Month to date heating degree days 187 261  
Since 1 July heating degree days 4520 4900  
Cooling Degree Days 0 0  
Month to date cooling degree days 0 0  
Year to date cooling degree days 0 0  
Moisture  
Dew Point 24 °F    
Average Humidity 60    
Maximum Humidity 85    
Minimum Humidity 34    
Precipitation  
Precipitation 0.00 in 0.01 in 0.04 in (2001)
Month to date precipitation 0.01 0.06  
Year to date precipitation 0.11 0.35  
Sea Level Pressure  
Sea Level Pressure 29.83 in    
Wind  
Wind Speed 12 mph (WNW)    
Max Wind Speed 31 mph    
Max Gust Speed 38 mph    
T = Trace of Precipitation, MM = Missing Value Source: NWS Daily Summary

Daily Weather History Graph

Daily Weather History Graph

Search for Another Location

Airport or City:

Trip Planner

Search our weather history database for the weather conditions in past years. The results will help you decide how hot, cold, wet, or windy it might be!

Date:

Astronomy

Feb. 06, 2013 Rise Set
Actual Time 7:08 AM MST 5:08 PM MST
Civil Twilight 6:37 AM MST 5:39 PM MST
Nautical Twilight 6:02 AM MST 6:14 PM MST
Astronomical Twilight 5:27 AM MST 6:49 PM MST
Moon 4:00 AM MST (2/6) 1:23 PM MST (2/6)
Length of Visible Light 11h 02m
Length of Day
9h 59m
Waning Crescent, 16% of the Moon is Illuminated
Feb 6
Waning Crescent
Feb 10
New
Feb 17
First Quarter
Feb 25
Full
Mar 4
Last Quarter

Hourly Weather History & Observations

Time (MST) Temp. Windchill Dew Point Humidity Pressure Visibility Wind Dir Wind Speed Gust Speed Precip Events Conditions
12:56 AM 32.0 °F 26.4 °F 25.0 °F 75% 29.72 in - SSW 5.8 mph - N/A   Unknown
1:56 AM 30.0 °F - 25.0 °F 82% 29.72 in - Calm Calm - N/A   Unknown
2:56 AM 33.1 °F - 25.0 °F 72% 29.69 in - Calm Calm - N/A   Unknown
3:56 AM 32.0 °F - 25.0 °F 75% 29.69 in - Calm Calm - N/A   Unknown
4:56 AM 28.0 °F 20.0 °F 24.1 °F 85% 29.72 in - WNW 8.1 mph - N/A   Unknown
5:56 AM 32.0 °F 24.8 °F 25.0 °F 75% 29.72 in - West 8.1 mph - N/A   Unknown
6:56 AM 32.0 °F 23.0 °F 26.1 °F 79% 29.75 in - West 11.5 mph - N/A   Unknown
7:56 AM 35.1 °F 25.2 °F 28.0 °F 76% 29.76 in - WNW 16.1 mph - N/A   Unknown
8:56 AM 41.0 °F 32.8 °F 28.0 °F 60% 29.78 in - WNW 16.1 mph - N/A   Unknown
10:56 AM 45.0 °F 35.6 °F 23.0 °F 42% 29.80 in - NW 27.6 mph 38.0 mph N/A   Unknown
11:56 AM 48.0 °F - 23.0 °F 37% 29.80 in - NW 27.6 mph 34.5 mph N/A   Unknown
12:56 PM 48.0 °F - 23.0 °F 37% 29.81 in - WNW 26.5 mph 34.5 mph N/A   Unknown
1:56 PM 48.0 °F - 23.0 °F 37% 29.82 in - NW 20.7 mph 29.9 mph N/A   Unknown
2:56 PM 48.0 °F - 21.9 °F 36% 29.84 in - NW 21.9 mph 28.8 mph N/A   Unknown
3:56 PM 46.0 °F 38.3 °F 23.0 °F 40% 29.87 in - NW 20.7 mph 28.8 mph N/A   Unknown
4:56 PM 39.9 °F 33.4 °F 23.0 °F 51% 29.91 in - NW 10.4 mph - N/A   Unknown
5:56 PM 36.0 °F 30.3 °F 23.0 °F 59% 29.94 in - WNW 6.9 mph - N/A   Unknown
6:56 PM 35.1 °F 31.0 °F 23.0 °F 61% 29.96 in - WNW 4.6 mph - N/A   Unknown
7:56 PM 34.0 °F 28.8 °F 23.0 °F 64% 29.96 in - NW 5.8 mph - N/A   Unknown
8:56 PM 32.0 °F 28.7 °F 21.9 °F 66% 29.96 in - West 3.5 mph - N/A   Unknown
9:56 PM 28.0 °F 20.8 °F 21.0 °F 75% 29.98 in - West 6.9 mph - N/A   Unknown
10:56 PM 32.0 °F 25.6 °F 24.1 °F 73% 29.98 in - West 6.9 mph - N/A   Unknown
11:56 PM 30.9 °F 23.5 °F 25.0 °F 79% 29.98 in - WNW 8.1 mph - N/A   Unknown